TimeEDT,TemperatureF,Dew PointF,Humidity,Sea Level PressureIn,VisibilityMPH,Wind Direction,Wind SpeedMPH,Gust SpeedMPH,PrecipitationIn,Events,Conditions,WindDirDegrees,DateUTC
12:53 AM,64.0,57.0,78,30.07,10.0,NNE,9.2,-,N/A,,Overcast,30,2012-10-08 04:53:00
1:53 AM,61.0,55.0,81,30.07,10.0,NNE,8.1,-,N/A,,Mostly Cloudy,20,2012-10-08 05:53:00
2:04 AM,60.8,55.4,82,30.08,10.0,NE,9.2,-,N/A,,Scattered Clouds,40,2012-10-08 06:04:00
2:53 AM,61.0,53.1,75,30.07,10.0,NE,8.1,-,N/A,,Overcast,40,2012-10-08 06:53:00
3:06 AM,60.8,51.8,72,30.08,10.0,NE,10.4,-,N/A,,Overcast,50,2012-10-08 07:06:00
3:53 AM,60.1,52.0,75,30.06,10.0,NE,6.9,-,N/A,,Overcast,50,2012-10-08 07:53:00
4:53 AM,59.0,51.1,75,30.05,10.0,ENE,9.2,-,N/A,,Partly Cloudy,60,2012-10-08 08:53:00
5:29 AM,57.2,50.0,77,30.07,10.0,NE,4.6,-,N/A,,Mostly Cloudy,40,2012-10-08 09:29:00
5:53 AM,59.0,51.1,75,30.07,10.0,NE,6.9,-,N/A,,Overcast,40,2012-10-08 09:53:00
6:53 AM,59.0,48.9,69,30.09,10.0,NNE,6.9,-,N/A,,Overcast,20,2012-10-08 10:53:00
7:53 AM,59.0,48.9,69,30.10,10.0,NE,9.2,-,N/A,,Overcast,40,2012-10-08 11:53:00
8:53 AM,59.0,48.9,69,30.12,10.0,NE,8.1,-,N/A,,Overcast,50,2012-10-08 12:53:00
9:53 AM,59.0,48.9,69,30.13,10.0,ENE,8.1,-,N/A,,Overcast,70,2012-10-08 13:53:00
10:53 AM,60.1,50.0,69,30.14,10.0,ENE,10.4,-,N/A,,Overcast,70,2012-10-08 14:53:00
11:53 AM,60.1,50.0,69,30.15,10.0,ENE,8.1,-,N/A,,Overcast,60,2012-10-08 15:53:00
12:53 PM,60.1,51.1,72,30.12,10.0,NNE,10.4,-,N/A,,Overcast,30,2012-10-08 16:53:00
1:53 PM,61.0,52.0,72,30.09,10.0,NNE,9.2,-,N/A,,Overcast,30,2012-10-08 17:53:00
2:53 PM,62.1,52.0,70,30.08,10.0,NNE,5.8,-,N/A,,Overcast,20,2012-10-08 18:53:00
3:53 PM,62.1,53.1,72,30.07,10.0,NNE,9.2,-,N/A,,Overcast,30,2012-10-08 19:53:00
4:53 PM,61.0,52.0,72,30.08,10.0,NNE,6.9,-,N/A,,Overcast,20,2012-10-08 20:53:00
5:53 PM,60.1,52.0,75,30.09,10.0,NNE,8.1,-,N/A,,Overcast,30,2012-10-08 21:53:00
6:53 PM,59.0,52.0,78,30.10,10.0,NNE,8.1,-,N/A,,Overcast,30,2012-10-08 22:53:00
7:53 PM,57.2,51.8,82,30.11,10.0,NE,6.9,-,N/A,,Overcast,40,2012-10-08 23:53:00
8:53 PM,57.9,51.1,78,30.13,10.0,NNE,9.2,-,N/A,,Overcast,20,2012-10-09 00:53:00
9:53 PM,57.0,51.1,81,30.14,10.0,NNE,6.9,-,N/A,,Overcast,30,2012-10-09 01:53:00
10:04 PM,57.2,51.8,82,30.14,10.0,North,8.1,-,N/A,,Overcast,10,2012-10-09 02:04:00
10:53 PM,55.9,51.1,84,30.14,10.0,NNE,8.1,-,N/A,,Overcast,30,2012-10-09 02:53:00
11:40 PM,55.4,51.8,88,30.15,10.0,NE,6.9,-,N/A,,Overcast,40,2012-10-09 03:40:00
11:53 PM,55.0,51.1,86,30.14,10.0,NNE,9.2,-,N/A,,Overcast,30,2012-10-09 03:53:00